Location: Narrabri
(30.3170°S, 149.7830°E)
Time: 02:37:13
(UTC+11:00)

Vanguard 3 - Visible Passes

Search period start: 26 February 2018 00:00
Search period end: 08 March 2018 00:00
Orbit: 508 x 3264 km, 33.3° (Epoch: 24 February)

Date Brightness Start Highest point End Pass type
(mag) Time Alt. Az. Time Alt. Az. Time Alt. Az.
26 Feb 9.6 02:14:50 62° E 02:14:50 62° E 02:29:53 10° ESE visible
26 Feb 9.8 04:19:24 37° W 04:28:03 81° S 04:48:32 10° E visible
27 Feb 10.5 01:04:59 27° E 01:04:59 27° E 01:11:52 10° ESE visible
27 Feb 9.3 03:09:33 77° W 03:11:06 86° SSW 03:30:48 10° ESE visible
27 Feb 10.0 05:14:07 16° W 05:28:50 83° S 05:49:11 10° E visible
28 Feb 9.7 01:59:44 54° E 01:59:44 54° E 02:12:49 10° ESE visible
28 Feb 9.7 04:04:18 42° W 04:11:28 80° S 04:31:47 10° E visible
28 Feb 10.2 06:11:37 10° WSW 06:29:30 86° NNW 06:49:11 10° ENE visible
01 Mar 10.6 00:49:58 22° ESE 00:49:58 22° ESE 00:54:51 10° ESE visible
01 Mar 9.3 02:54:32 83° SSW 02:54:43 83° S 03:13:50 10° E visible
01 Mar 9.9 04:59:07 20° WSW 05:12:04 85° SSE 05:32:32 10° ENE visible
02 Mar 9.9 01:44:49 45° ESE 01:44:49 45° ESE 01:55:45 10° ESE visible
02 Mar 9.6 03:49:23 49° WSW 03:54:56 80° S 04:14:58 10° E visible
02 Mar 10.1 05:55:31 10° WSW 06:12:32 82° NNW 06:32:33 10° ENE visible
03 Mar 10.8 00:35:09 17° ESE 00:35:09 17° ESE 00:37:52 10° ESE visible
03 Mar 9.3 02:39:44 76° SE 02:39:44 76° SE 02:56:50 10° E visible
03 Mar 9.8 04:44:19 25° WSW 04:55:21 87° SSE 05:15:47 10° ENE visible
04 Mar 10.2 01:30:09 35° ESE 01:30:09 35° ESE 01:38:42 10° ESE visible
04 Mar 9.4 03:34:44 59° WSW 03:38:30 80° S 03:58:03 10° E visible
04 Mar 10.0 05:39:31 10° WSW 05:55:37 78° NNW 06:15:46 10° ENE visible
05 Mar 11.0 00:20:38 11° ESE 00:20:38 11° ESE 00:20:57 10° ESE visible
05 Mar 9.5 02:25:14 63° ESE 02:25:14 63° ESE 02:39:49 10° E visible
05 Mar 9.7 04:29:50 33° WSW 04:38:40 90° NNW 04:58:53 10° ENE visible
06 Mar 10.5 01:15:48 26° ESE 01:15:48 26° ESE 01:21:42 10° ESE visible
06 Mar 9.2 03:20:24 73° SW 03:22:07 81° S 03:41:05 10° E visible
06 Mar 9.9 05:25:01 15° WSW 05:38:43 72° NNW 05:58:47 10° NE visible
07 Mar 9.8 02:11:04 49° ESE 02:11:04 49° ESE 02:22:50 10° E visible
07 Mar 9.5 04:15:41 44° WSW 04:22:03 86° NNW 04:41:53 10° ENE visible
07 Mar 10.2 06:22:51 10° WSW 06:38:30 52° NNW 06:57:20 10° NE visible
